Flag for U.S.A. Weather past 2 weeks in Toledo, Ohio, U.S.A.

68 °F


Feels Like: 68 °F
Forecast: 53 / 72 °F
Wind: 3 mph from West

Location: Toledo Suburban Airport

Current Time: Oct 7, 2015 at 12:07:28 PM

Latest Report: Oct 7, 2015 at 11:34 AM

Visibility: 10 mi

Pressure: 30.14 "Hg

Humidity: 53%

Dew point: 51 °F

Location of ToledoLocation

Historic Weather in Toledo — Graph


Toledo temperature yesterday

Maximum temperature yesterday: 70 °F (at 5:35 PM)
Minimum temperature yesterday: 52 °F (at 12:35 AM)
Average temperature yesterday: 60 °F

Past Weeks' High & Low Weather Summary

High81 °F (Sep 28, 2:35 PM)94% (Sep 23, 8:15 AM)30.34 "Hg (Sep 23, 8:15 AM)
Low47 °F (Oct 1, 7:35 AM)28% (Sep 22, 4:35 PM)29.93 "Hg (Sep 29, 5:35 AM)
Average62 °F75%30.18 "Hg
* Reported Sep 22 10:14 AM — Oct 7 10:55 AM, Toledo, Weather by CustomWeather, © 2015

Note: Actual official high and low records may vary slightly from our data, if they occured in-between our weather recording intervals... More about our weather records


Toledo weather history for previous 24 hours

Time TempWeatherWind HumidityBarometerVisibility
10:55 AM
Wed, Oct 7
66 °FSunny.5 mph64%30.14 "Hg10 mi
10:34 AM64 °FSunny.3 mph74%30.14 "Hg10 mi
10:15 AM63 °FSunny.6 mph78%30.14 "Hg10 mi
9:55 AM61 °FSunny.5 mph87%30.13 "Hg7 mi
9:34 AM60 °FFog.No wind91%30.13 "Hg5 mi
9:15 AM58 °FFog.3 mph92%30.13 "Hg4 mi
8:55 AM56 °FFog.No wind93%30.13 "Hg3 mi
8:34 AM54 °FFog.No wind93%30.13 "Hg1 mi
8:15 AM51 °FFog.No wind93%30.13 "Hg0 mi
7:55 AM51 °FFog.No wind93%30.11 "Hg0 mi
7:34 AM52 °FFog.No wind92%30.11 "Hg1 mi
7:15 AM53 °FFog.No wind92%30.11 "Hg1 mi
6:55 AM54 °FFog.No wind93%30.10 "Hg5 mi
6:34 AM54 °FFog.No wind93%30.10 "Hg5 mi
6:15 AM53 °FFog.No wind92%30.10 "Hg2 mi
5:55 AM53 °FFog.No wind93%30.10 "Hg4 mi
5:35 AM52 °FFog.No wind93%30.09 "Hg1 mi
5:15 AM53 °FFog.No wind92%30.10 "Hg1 mi
4:54 AM51 °FFog.No wind92%30.09 "Hg1 mi
4:35 AM53 °FFog.No wind93%30.09 "Hg0 mi
4:15 AM53 °FFog.No wind92%30.09 "Hg0 mi
3:54 AM55 °FFog.No wind91%30.09 "Hg1 mi
3:35 AM56 °FFog.No wind91%30.08 "Hg2 mi
3:15 AM57 °FClear.No wind89%30.09 "Hg7 mi
2:54 AM59 °FPassing clouds.No wind87%30.09 "Hg10 mi
2:35 AM60 °FOvercast.3 mph88%30.10 "Hg7 mi
2:15 AM61 °FOvercast.No wind89%30.10 "Hg7 mi
1:54 AM61 °FOvercast.No wind89%30.10 "Hg7 mi
1:35 AM60 °FFog.No wind91%30.09 "Hg5 mi
1:15 AM60 °FFog.No wind91%30.09 "Hg5 mi
12:54 AM60 °FFog.No wind91%30.10 "Hg5 mi
12:35 AM60 °FFog.No wind91%30.10 "Hg5 mi
12:15 AM58 °FFog.No wind91%30.10 "Hg3 mi
11:35 PM
Tue, Oct 6
60 °FFog.No wind91%30.10 "Hg5 mi
10:55 PM59 °FFog.No wind91%30.10 "Hg5 mi
10:35 PM59 °FFog.No wind90%30.10 "Hg5 mi
10:15 PM60 °FClear.No wind89%30.09 "Hg7 mi
9:55 PM62 °FPassing clouds.No wind86%30.09 "Hg10 mi
9:35 PM63 °FOvercast.3 mph87%30.09 "Hg10 mi
9:15 PM63 °FPassing clouds.No wind86%30.09 "Hg10 mi
8:55 PM64 °FPassing clouds.No wind85%30.08 "Hg10 mi
8:35 PM64 °FOvercast.No wind88%30.08 "Hg7 mi
8:15 PM64 °FOvercast.No wind88%30.08 "Hg7 mi
7:55 PM65 °FOvercast.No wind85%30.08 "Hg7 mi
7:35 PM65 °FOvercast.No wind86%30.08 "Hg7 mi
7:15 PM66 °FOvercast.No wind84%30.08 "Hg7 mi
6:55 PM66 °FOvercast.No wind81%30.08 "Hg10 mi
5:35 PM70 °FOvercast.No wind68%30.08 "Hg10 mi
5:15 PM68 °FPartly sunny.No wind70%30.09 "Hg10 mi
4:54 PM69 °FScattered clouds.No wind68%30.09 "Hg10 mi
4:35 PM69 °FScattered clouds.No wind66%30.09 "Hg10 mi
4:15 PM68 °FPartly sunny.No wind69%30.09 "Hg10 mi
3:54 PM68 °FScattered clouds.No wind71%30.09 "Hg10 mi
3:35 PM67 °FPartly sunny.No wind73%30.10 "Hg10 mi
3:15 PM67 °FPartly sunny.No wind73%30.10 "Hg10 mi
2:54 PM67 °FSunny.No wind72%30.11 "Hg10 mi
2:35 PM67 °FBroken clouds.No wind73%30.11 "Hg10 mi
2:15 PM67 °FCloudy.No wind74%30.12 "Hg10 mi
1:55 PM66 °FMostly cloudy.No wind78%30.13 "Hg7 mi
1:35 PM64 °FOvercast.No wind81%30.14 "Hg7 mi
1:14 PM64 °FLow clouds.No wind81%30.15 "Hg7 mi
12:55 PM62 °FLow clouds.No wind84%30.15 "Hg5 mi
12:35 PM62 °FFog.No wind88%30.15 "Hg5 mi
12:15 PM61 °FFog.No wind90%30.15 "Hg4 mi
Weather by CustomWeather, © 2015

See weather overviewHow to use our weather pages